Wind_Speed
38 39 41 42 43 45 46 48 50 52 54 55 57 58 59 60 61 61 62 63 64 65 66 68 68 68 69 70 70 70 70 70 70 70 71 73 74 74 73 72 72 71 71 71 71 72 72 73 73 75 78 81 83 84 86 88 88 89 87 83 76 70 66 63 64 63 63 63 64 66 69 72 73 73 70 71 73 69 70 70 64 63 59 54 53 52 56 59
39 40 41 42 44 44 45 46 47 48 50 51 53 55 57 58 59 60 61 62 63 64 66 67 68 69 70 71 72 72 72 72 72 72 74 75 76 76 76 76 75 74 74 73 73 73 73 74 75 75 76 77 80 82 86 89 91 91 88 83 76 70 67 66 66 65 66 66 67 69 71 72 73 74 74 76 76 69 69 73 70 67 61 55 55 55 57 60
40 41 42 43 44 45 46 47 47 47 47 48 49 51 53 55 57 58 59 60 60 62 63 65 67 68 69 71 73 73 74 74 74 74 76 77 78 78 79 79 79 78 77 76 75 75 75 76 77 77 77 77 77 80 84 88 91 91 89 83 75 71 71 70 69 68 69 69 70 71 72 74 72 72 77 80 76 70 69 72 72 71 64 57 57 59 60 59
40 41 42 43 44 45 46 47 47 48 48 47 47 48 49 51 53 55 56 58 58 59 60 62 64 65 67 70 72 74 75 75 75 76 78 79 80 81 82 83 82 82 80 79 78 78 77 77 78 78 78 77 77 79 82 84 87 89 89 82 74 75 76 73 72 72 72 72 73 74 74 74 72 72 78 81 75 70 69 69 71 73 68 62 61 62 63 61
40 41 42 43 44 45 46 46 47 47 47 47 47 47 47 47 49 51 53 55 56 57 57 58 60 62 63 66 70 72 74 75 75 78 80 81 82 83 84 85 85 85 84 83 82 81 80 80 79 79 79 78 79 81 80 80 83 87 88 82 77 79 79 76 76 76 75 74 75 75 75 74 73 74 78 80 74 69 71 70 70 74 73 67 65 64 64 63
42 42 43 44 45 45 46 46 46 46 47 47 46 46 46 46 47 48 50 52 54 55 56 57 58 58 60 62 66 69 72 74 75 78 82 83 84 85 85 86 87 87 87 86 85 84 83 82 82 81 80 79 80 81 80 81 83 85 84 80 79 80 79 78 79 80 77 77 77 76 75 75 75 76 79 79 73 69 72 73 71 74 74 68 67 68 66 63
44 45 45 46 47 47 48 48 47 47 47 47 46 46 46 46 47 48 48 50 51 53 54 56 57 57 58 60 63 66 69 72 74 77 82 84 85 86 86 87 88 89 89 89 89 88 86 85 84 83 82 81 81 81 81 84 86 85 81 77 77 79 80 80 83 83 80 80 81 78 76 78 78 77 78 76 71 70 70 73 73 71 73 70 69 70 68 66
47 47 48 49 49 50 51 50 50 49 49 48 47 47 47 48 49 48 48 48 49 50 52 54 56 56 58 61 63 65 68 71 73 75 80 83 83 85 87 88 89 90 91 92 92 91 90 88 87 87 86 84 83 82 83 86 88 85 78 73 73 77 79 81 86 86 82 83 85 83 80 80 78 77 78 75 73 72 69 74 75 72 73 73 73 71 69 70
50 51 51 52 53 53 53 53 53 52 52 51 50 50 50 51 50 49 48 47 47 48 50 53 54 55 58 62 64 66 69 70 70 72 76 80 83 86 87 88 89 89 90 92 93 94 93 92 91 91 90 87 86 85 85 87 86 82 76 74 74 75 78 82 87 89 86 87 90 88 83 80 77 77 78 76 74 72 70 75 76 73 74 73 73 72 70 70
53 54 55 56 56 56 55 55 55 55 55 55 54 54 53 53 52 50 49 48 48 49 50 52 54 56 59 62 65 68 67 65 68 72 76 80 83 86 87 86 87 89 90 92 94 95 96 95 95 95 93 90 89 87 87 87 84 80 77 77 77 76 78 82 87 90 90 91 93 89 84 81 79 80 81 76 72 71 71 76 75 72 73 70 69 72 70 68
57 58 59 59 59 59 58 56 56 57 57 58 58 57 56 55 53 52 50 50 49 50 51 53 56 57 59 63 65 66 63 63 69 75 78 80 81 85 85 82 83 87 89 92 94 96 97 98 99 98 95 93 92 90 90 89 85 81 79 78 78 78 78 80 85 90 91 92 92 88 84 83 84 85 82 73 69 70 71 78 78 73 72 69 66 68 68 66
60 61 62 62 62 61 60 59 59 59 60 61 61 61 59 58 56 54 53 52 51 51 52 54 56 58 60 65 66 63 63 66 70 75 79 81 82 85 84 81 82 85 87 90 93 95 97 99 100 100 99 97 95 94 93 91 87 84 82 80 78 78 78 79 83 86 88 89 89 89 87 88 89 87 79 69 67 70 73 79 81 75 72 68 64 64 64 64
63 64 64 64 63 62 62 61 61 61 63 64 65 64 62 60 58 56 55 53 52 52 53 54 55 57 60 65 66 64 65 67 69 73 79 82 84 87 87 84 84 86 86 88 91 94 96 99 100 101 101 100 98 97 96 93 90 87 85 83 80 79 78 79 82 83 84 84 85 90 93 91 89 84 75 70 71 74 76 81 82 76 72 68 62 61 61 62
65 65 66 65 64 63 63 62 62 63 65 67 68 67 64 61 59 58 56 54 53 53 53 53 55 56 59 63 64 64 66 67 69 73 77 81 85 89 90 87 87 88 88 88 89 90 93 96 98 100 101 102 102 101 99 97 94 90 89 86 83 80 77 77 81 81 81 80 81 89 94 90 86 81 74 73 78 79 78 81 83 77 73 70 64 60 61 62
66 67 67 67 65 65 65 64 64 66 68 70 71 70 66 63 60 59 57 55 53 52 52 52 53 54 57 60 62 63 64 65 68 71 74 79 83 89 92 90 89 90 89 89 89 90 91 93 96 99 101 103 105 105 103 100 97 95 93 89 85 80 76 77 81 81 79 78 80 87 90 86 83 80 76 77 83 83 79 81 83 79 74 71 66 61 62 64
67 68 69 69 68 67 67 67 67 69 71 73 73 72 68 64 62 61 58 55 53 51 50 50 51 52 54 58 60 61 62 64 66 69 72 76 80 85 89 90 89 89 90 91 92 94 94 93 94 97 100 103 105 106 105 104 100 98 95 90 86 81 78 79 81 80 79 80 83 86 85 81 79 79 80 83 85 84 83 83 83 81 76 72 68 64 65 67
68 69 71 71 70 71 70 70 71 73 74 76 75 73 70 66 64 63 60 56 53 50 48 47 49 51 52 55 57 58 60 61 63 67 71 74 77 80 84 86 87 88 91 93 95 96 95 94 94 95 98 101 102 103 104 105 102 99 96 91 87 83 80 81 82 80 80 82 85 85 81 76 74 77 83 88 88 86 86 85 82 80 78 74 70 69 70 69
69 71 72 73 73 74 74 73 74 76 78 78 77 74 71 68 66 65 61 57 53 48 44 44 46 49 51 52 54 56 59 59 60 64 66 68 71 74 78 81 82 85 90 94 95 96 96 95 95 96 97 98 99 100 101 101 101 99 97 93 90 86 85 85 84 83 83 84 84 84 79 72 71 77 83 88 90 89 87 86 84 80 78 76 73 73 73 69
71 72 74 74 76 76 76 76 76 78 80 81 79 76 72 69 67 66 63 58 54 50 45 42 44 48 50 48 50 54 57 58 58 62 62 60 62 65 69 73 76 79 86 91 92 95 97 97 97 97 97 97 96 97 96 97 100 102 101 98 95 93 92 89 86 86 86 86 84 82 76 70 73 78 81 86 89 91 89 87 86 83 80 79 77 74 73 69
72 74 75 76 78 78 78 78 78 80 82 83 82 78 74 71 70 69 66 60 53 51 48 43 42 45 49 47 46 49 54 57 58 60 59 55 54 57 60 63 66 70 77 84 88 91 95 96 96 96 96 97 97 97 97 97 101 104 105 104 101 99 97 92 89 89 89 88 85 79 73 71 76 80 80 84 86 88 89 88 88 86 83 81 79 75 73 68
74 75 77 78 79 80 80 80 80 82 83 84 83 80 76 74 72 70 69 64 55 50 49 46 42 41 44 46 46 45 49 53 56 57 57 54 52 52 52 55 58 61 67 75 81 85 89 91 91 92 95 98 100 101 99 99 101 104 106 106 104 102 99 95 93 92 91 90 85 78 73 73 79 82 81 82 83 84 86 86 87 86 85 84 80 76 72 68
75 77 78 79 80 81 82 82 82 83 84 85 84 81 78 76 75 72 69 66 59 53 51 48 44 41 41 43 43 42 44 48 52 53 53 52 52 51 48 48 52 57 62 70 75 78 82 83 83 87 93 99 101 103 103 101 101 103 105 107 106 104 101 98 97 94 93 92 85 78 75 76 81 82 81 82 83 82 82 83 84 85 86 87 83 77 72 68
76 77 79 80 81 83 84 84 84 85 86 87 86 83 81 79 78 75 70 66 60 56 53 49 45 42 41 42 41 38 40 42 45 48 47 48 50 50 46 43 46 52 59 65 68 72 74 73 76 82 90 97 100 103 104 104 103 103 103 105 105 104 103 101 98 95 94 92 86 80 79 81 84 84 82 83 83 80 78 78 80 83 86 87 85 80 73 69
76 78 80 82 83 85 86 86 85 86 87 89 88 85 82 81 80 76 72 67 60 56 55 51 48 44 41 42 40 38 39 38 39 41 42 44 45 45 45 43 43 47 54 60 64 66 67 67 73 79 85 91 96 100 103 105 105 104 104 103 103 103 104 101 99 97 97 95 90 85 84 85 87 86 80 79 80 78 76 76 77 81 84 85 84 81 77 73
76 78 81 83 85 86 88 88 87 87 89 91 90 87 84 83 81 77 72 68 61 56 55 53 51 47 41 39 39 36 37 38 36 35 37 40 41 40 43 43 42 45 51 56 59 62 62 64 70 76 80 84 89 94 98 103 105 106 105 104 103 102 102 101 100 100 100 99 94 89 89 88 86 83 77 75 77 78 77 76 76 79 81 81 81 80 79 76
76 79 82 85 87 88 89 89 88 88 90 92 91 88 85 84 83 79 73 68 62 58 56 52 50 47 40 37 38 35 34 35 34 32 32 35 36 35 38 40 41 44 48 52 55 57 58 61 67 73 77 81 85 89 93 98 102 105 106 106 104 102 101 101 102 103 102 99 95 91 91 88 85 83 78 76 77 78 78 76 76 77 77 75 75 76 79 76
77 80 83 86 88 90 91 91 90 90 91 93 93 90 87 85 84 80 75 70 64 59 56 52 49 46 40 35 34 33 32 32 31 28 28 30 30 31 33 36 38 42 45 48 50 51 55 60 65 70 75 80 83 85 88 92 97 100 103 106 106 103 101 99 101 103 102 100 98 95 94 92 89 85 80 78 77 77 77 75 75 76 72 68 69 71 74 74
78 80 83 86 89 91 92 92 92 92 93 95 95 92 89 87 85 82 77 71 66 62 58 55 52 48 42 36 33 31 29 29 29 26 24 25 26 27 29 31 34 38 42 44 45 49 55 59 63 67 73 77 80 81 83 87 90 93 97 103 106 105 102 100 101 103 104 104 102 99 97 97 93 86 81 80 78 76 75 70 70 72 67 64 66 67 68 70
79 81 84 87 90 92 93 93 93 94 95 97 97 94 90 87 86 83 78 72 68 64 60 57 53 49 43 37 32 31 27 26 26 24 22 21 23 25 26 27 30 34 38 40 44 49 53 56 59 63 68 72 75 76 79 82 84 85 90 97 102 104 104 103 104 104 106 108 104 100 99 98 93 87 83 80 76 74 69 61 64 69 67 65 65 63 64 66
80 83 85 87 90 92 93 94 94 94 96 97 97 95 91 88 87 83 78 74 69 65 60 56 52 47 43 37 32 30 28 25 23 22 20 19 19 21 23 25 26 30 33 37 42 46 50 53 56 58 61 65 69 72 77 80 80 81 86 91 96 100 103 105 107 107 109 110 104 100 100 98 93 89 85 78 70 68 64 59 64 69 68 67 63 61 62 62
81 84 86 88 90 92 93 93 93 93 95 97 97 95 91 89 87 84 79 75 70 66 62 57 51 46 42 37 33 31 28 26 23 21 19 17 17 17 19 22 23 26 30 33 39 43 46 48 50 52 55 59 65 70 74 76 77 79 83 86 90 94 99 106 111 111 112 109 103 101 100 98 94 88 83 73 64 65 65 63 67 67 65 64 61 61 62 60
82 85 87 89 90 92 94 94 94 94 96 98 97 95 92 89 87 84 79 76 71 67 62 56 49 44 41 38 35 31 28 25 22 20 18 17 16 16 16 18 20 24 27 30 35 38 40 42 45 47 52 58 63 68 71 73 74 75 78 82 86 89 94 104 110 112 112 106 100 100 100 99 95 87 79 69 63 66 67 66 67 65 62 62 60 62 63 58
83 85 87 90 91 92 94 95 96 96 98 99 98 96 92 89 87 84 79 76 72 67 62 56 49 43 40 38 35 32 28 24 21 18 16 16 15 15 15 16 18 21 23 27 31 33 36 38 40 44 48 54 58 63 67 69 70 72 74 79 83 84 89 97 104 108 109 103 99 100 101 99 95 85 75 69 66 66 66 66 69 65 61 60 60 65 64 57
83 85 88 90 92 93 94 96 97 97 99 100 98 95 91 88 86 84 79 76 73 68 62 58 52 46 42 39 36 33 30 25 21 18 16 15 14 14 14 15 16 18 20 23 26 29 33 35 38 42 46 50 54 58 62 65 68 70 72 77 80 81 84 89 96 103 104 101 99 102 102 99 93 81 71 68 66 65 66 70 73 68 62 60 62 66 63 55
83 85 88 90 92 93 94 95 97 98 99 100 98 95 90 87 85 83 80 76 72 69 65 60 56 51 47 42 37 34 32 28 23 19 17 15 14 13 13 13 15 16 18 20 23 26 29 33 36 40 44 48 52 56 61 65 67 69 74 77 77 77 78 83 89 93 97 99 101 103 102 97 90 78 70 71 72 71 71 74 74 69 63 62 63 63 59 52
81 85 89 90 92 93 94 95 97 98 100 101 99 95 91 87 86 83 79 76 72 68 66 63 59 55 50 45 40 35 33 30 25 20 17 15 13 12 12 12 12 14 16 18 20 23 27 30 33 36 40 44 48 54 59 61 63 68 72 71 69 71 75 78 81 83 90 97 101 103 102 97 91 81 75 76 78 76 73 72 72 67 62 61 61 59 55 50
81 85 88 90 92 93 93 95 96 98 100 101 99 96 91 88 86 83 79 76 73 69 67 63 60 57 52 47 42 37 34 31 26 22 18 16 14 12 11 10 10 12 14 15 18 21 24 26 28 32 37 41 46 52 55 56 60 63 62 61 65 71 74 75 77 80 86 93 98 101 102 99 93 84 78 78 77 74 69 68 69 66 60 59 58 56 52 48
81 85 87 90 92 93 93 94 96 96 99 100 99 96 91 86 84 82 78 75 72 70 68 64 60 56 52 47 42 38 36 32 28 24 20 17 15 13 11 10 9 9 11 13 15 18 21 22 25 31 37 42 46 48 49 52 55 55 57 64 70 73 73 74 76 79 84 90 94 98 101 99 91 82 78 76 74 71 68 67 67 65 60 57 56 54 50 46
81 84 87 89 91 93 93 93 94 96 98 99 98 94 90 85 83 81 77 73 71 70 67 64 60 56 50 46 42 39 37 33 29 25 21 18 15 13 11 10 8 8 9 10 12 15 18 20 24 30 35 38 39 40 42 47 52 56 63 68 70 70 71 73 74 77 82 86 88 94 99 95 85 80 77 74 73 72 70 68 65 63 60 56 55 53 49 45
81 83 86 88 90 91 92 93 95 96 98 99 97 93 87 83 80 78 75 72 70 68 66 63 59 55 50 46 42 38 35 33 30 26 23 20 17 13 11 9 8 7 7 8 10 13 16 18 22 26 30 31 32 35 40 45 50 56 58 59 62 65 67 71 73 76 81 81 82 90 94 87 79 77 76 73 74 74 71 67 63 60 59 56 54 52 48 45
81 83 85 88 90 91 92 94 96 97 98 98 95 90 85 79 77 76 74 72 70 68 65 61 57 54 50 46 43 38 35 33 31 28 24 21 18 14 11 8 6 5 5 6 8 11 14 16 19 23 26 29 32 36 41 44 46 48 49 51 56 61 65 69 72 76 78 77 79 86 87 80 77 76 74 73 74 73 71 67 61 58 57 55 54 51 47 44
83 85 87 88 90 91 93 94 96 96 97 96 93 88 83 77 75 75 73 72 70 68 65 61 57 54 50 46 43 40 37 35 33 30 26 22 17 13 10 7 4 2 3 4 6 9 11 14 17 22 26 30 32 34 37 41 45 47 50 53 56 59 62 64 67 71 73 73 77 81 78 76 77 76 74 74 74 72 70 66 61 58 56 56 56 51 46 45
82 85 87 89 90 92 93 94 95 96 97 97 94 89 83 77 74 74 72 71 70 67 64 61 56 53 50 46 42 39 36 34 33 29 26 22 18 13 11 8 5 2 1 3 5 7 10 13 16 20 24 28 30 32 35 39 43 46 49 53 55 56 57 59 62 66 70 72 75 75 74 76 78 77 75 75 74 71 70 66 61 59 58 58 55 49 44 44
81 84 87 90 91 92 92 93 95 96 98 98 95 90 83 77 74 72 70 69 68 65 63 60 56 52 49 46 42 38 35 33 32 29 25 22 18 13 11 10 7 5 3 3 5 7 10 13 15 17 19 21 23 26 28 31 34 39 44 48 50 52 55 60 63 65 67 69 69 69 71 75 76 74 73 74 72 70 68 65 61 59 58 56 53 48 44 43
82 84 86 88 90 91 91 92 94 96 97 97 95 89 81 76 73 71 69 69 67 64 62 59 55 52 48 44 42 38 34 32 30 28 24 20 16 13 11 11 10 8 6 5 6 8 10 12 14 16 18 18 19 21 22 24 28 34 40 44 47 49 53 59 62 63 65 65 64 66 71 75 74 73 73 73 70 68 68 65 61 59 58 55 52 48 45 44
82 85 87 88 89 90 90 91 92 93 95 95 92 85 77 72 71 69 67 66 65 62 60 58 54 51 47 44 41 37 33 31 29 27 24 19 16 13 12 12 12 11 9 7 7 9 10 13 15 17 20 23 26 29 31 31 31 33 37 41 45 48 53 58 61 61 60 59 60 65 72 75 74 73 72 71 67 66 67 64 60 59 57 54 51 47 45 44
83 85 87 88 89 90 91 91 91 92 94 94 90 82 74 69 67 66 64 63 62 59 57 56 53 49 46 42 40 36 33 31 29 27 24 19 16 14 13 15 14 12 10 8 8 10 11 13 16 19 21 23 25 29 34 37 38 38 40 42 45 49 52 54 56 57 58 57 59 65 71 72 72 71 71 70 68 67 67 64 61 59 57 53 50 47 45 44
83 86 87 88 89 90 90 91 92 93 95 95 89 80 72 66 63 62 61 61 60 58 56 55 52 49 44 40 38 36 33 31 29 27 24 21 18 15 14 16 15 13 11 10 9 11 12 13 15 18 21 23 24 25 28 34 39 43 44 45 47 48 49 49 51 54 57 58 61 66 69 70 71 71 71 70 69 67 65 62 60 59 57 52 48 45 44 44
85 87 88 89 89 89 89 90 91 92 93 92 85 76 69 65 62 60 59 60 60 57 55 53 51 47 43 40 37 35 32 29 27 26 24 21 19 17 16 16 15 13 12 12 11 13 15 16 17 19 20 23 26 28 29 31 37 43 46 47 47 47 48 49 51 55 57 59 61 65 68 70 71 71 70 69 67 65 63 61 59 57 54 50 45 42 42 42
85 88 90 91 90 89 89 90 91 92 92 88 82 75 69 64 62 60 58 58 58 56 52 50 48 44 41 39 36 33 30 28 26 24 23 21 19 18 17 17 17 16 14 13 13 15 17 18 21 21 20 21 24 29 34 36 38 42 47 49 50 48 48 48 50 55 58 59 60 64 68 69 70 70 67 66 66 64 62 61 59 55 52 48 44 41 40 40
85 87 89 90 90 89 88 89 90 91 90 86 79 72 67 63 61 60 58 56 56 53 49 48 46 43 39 37 34 31 29 26 24 23 23 21 19 18 19 19 19 19 17 15 14 15 17 19 21 22 23 24 25 29 35 39 41 44 48 51 50 49 49 47 49 55 58 60 61 65 68 67 67 69 66 63 64 63 62 60 56 52 50 47 43 41 41 41
85 87 89 90 90 89 88 88 90 89 88 84 77 69 64 60 58 58 57 56 55 53 48 46 45 42 38 35 32 30 27 24 23 22 22 22 19 18 20 21 20 20 18 16 16 16 17 19 21 21 22 25 27 30 35 39 40 41 46 51 50 49 50 51 54 58 59 60 63 67 68 62 61 68 69 66 64 62 60 57 50 46 48 47 43 42 42 43
Wind_Direction
298 297 296 295 293 292 291 290 289 288 287 286 286 285 284 283 282 280 278 275 273 270 268 266 264 263 262 261 260 258 257 256 254 253 251 250 250 249 247 246 245 244 244 243 243 242 242 240 240 239 239 239 237 237 237 237 237 236 235 234 232 230 230 232 234 234 234 233 233 233 232 231 231 233 233 233 233 231 230 228 228 230 230 228 228 224 221 222
299 298 297 295 294 293 292 291 290 290 289 288 286 285 284 283 281 279 277 275 272 270 267 265 263 262 260 259 258 257 256 255 254 252 250 250 249 248 247 246 245 244 244 243 243 242 241 241 239 239 239 239 238 237 237 237 238 237 236 234 232 231 230 231 232 233 233 232 233 233 232 231 229 230 232 232 232 230 230 230 227 229 228 225 224 220 219 224
300 299 298 297 296 295 295 294 293 292 291 290 288 286 284 282 280 278 276 274 272 270 267 264 262 260 259 257 257 256 255 254 253 252 250 249 248 247 246 245 244 244 243 243 242 242 241 241 240 239 238 238 238 238 237 238 238 238 237 235 231 231 230 229 231 232 232 232 232 233 232 232 231 229 230 231 231 230 230 231 229 229 227 223 221 220 220 224
303 302 301 300 300 299 298 297 297 296 295 294 292 290 286 284 281 279 276 273 271 270 267 264 262 260 257 256 255 255 254 253 252 251 250 249 247 246 245 244 243 243 243 242 242 241 241 241 241 240 239 238 238 238 238 238 238 239 238 235 231 230 230 228 229 231 231 231 232 233 232 233 232 231 231 231 232 231 231 232 231 230 227 221 219 220 222 224
308 308 307 306 305 304 303 302 301 301 300 298 296 293 290 287 284 281 278 275 272 270 268 266 263 261 258 256 255 254 253 252 251 250 250 248 247 246 244 243 243 242 242 241 241 241 241 241 241 240 240 238 237 237 238 238 239 239 238 235 230 229 229 227 228 229 230 230 231 233 233 233 233 233 232 233 232 231 232 232 232 231 227 221 222 223 224 226
315 314 314 313 312 310 309 308 307 307 306 304 301 298 295 292 290 286 282 278 274 272 269 267 265 263 260 257 255 254 253 251 249 249 248 247 247 246 244 243 242 242 241 241 241 240 240 240 240 240 240 239 238 238 237 238 238 238 237 234 231 230 228 228 228 229 229 230 231 232 234 233 233 233 234 234 234 232 232 233 232 233 230 224 224 228 228 228
321 320 320 319 318 317 316 315 314 313 312 309 306 303 301 299 296 292 287 282 277 274 271 269 267 265 262 260 257 255 254 251 249 248 247 247 246 246 245 244 243 242 240 240 240 240 240 240 240 240 239 239 239 238 237 237 237 237 236 233 231 230 228 228 229 229 228 230 231 230 232 233 232 233 235 236 236 235 233 235 234 234 234 228 225 229 230 231
327 326 326 325 324 323 322 321 320 318 317 315 312 310 307 305 302 298 292 287 282 277 274 271 268 266 264 262 259 257 255 253 251 249 248 248 247 246 245 244 243 242 241 240 239 239 239 239 239 239 239 238 238 238 237 237 237 237 236 234 232 230 229 228 229 229 227 229 230 229 230 233 233 233 235 236 236 236 234 234 235 233 233 230 227 228 230 232
333 332 331 331 330 328 327 326 325 323 322 320 318 316 313 311 307 303 299 295 290 284 279 274 270 267 264 262 260 258 256 254 254 253 251 249 247 246 244 243 243 243 242 241 240 238 238 238 238 238 238 238 237 237 237 238 238 238 236 234 232 229 228 228 229 229 227 228 230 228 229 232 233 234 235 235 235 236 235 235 235 233 233 231 229 231 232 232
338 337 336 335 334 332 331 329 328 327 326 325 323 321 318 316 313 310 306 303 298 292 286 280 275 270 266 263 261 259 257 256 256 254 252 249 248 247 246 244 243 242 242 241 241 239 238 237 237 237 237 237 238 237 238 238 238 238 236 234 232 229 227 227 228 228 227 228 230 228 228 230 233 234 234 234 236 237 238 239 238 235 235 233 231 232 234 234
341 340 339 338 336 335 333 332 331 330 329 328 327 325 323 320 317 315 312 309 304 298 291 284 279 274 269 266 262 260 259 257 254 253 252 252 250 250 249 248 246 243 242 241 241 240 239 237 237 237 237 237 237 237 237 238 237 237 236 234 233 231 228 227 228 229 228 228 230 230 228 229 231 232 232 233 236 238 239 241 239 235 235 235 233 232 235 237
343 342 340 339 337 336 335 334 333 332 332 331 330 328 326 323 321 319 317 313 308 302 294 287 281 277 272 268 265 262 259 256 253 252 252 252 252 252 251 250 248 246 243 242 240 240 239 238 237 236 236 236 236 236 236 237 236 236 235 234 233 232 231 229 229 229 229 229 231 231 229 228 231 232 232 233 236 238 239 241 241 236 234 234 234 235 235 238
344 343 341 339 338 337 337 336 335 335 335 334 334 332 329 326 325 323 319 316 312 305 297 290 284 278 273 269 266 263 260 256 253 252 251 251 251 251 251 249 248 247 245 243 241 240 239 239 238 237 236 235 235 236 236 236 236 235 235 233 232 231 230 230 231 230 230 229 230 232 230 228 231 232 232 232 235 237 239 241 242 238 235 233 233 236 236 237
344 343 342 340 339 338 338 337 337 338 338 338 337 334 332 329 328 325 322 319 314 306 299 293 286 280 275 270 268 264 260 257 254 251 250 249 249 249 249 248 246 246 246 245 244 242 240 239 238 237 236 235 234 234 235 235 234 234 234 233 232 230 229 230 232 232 230 229 230 233 232 229 230 231 231 232 234 236 238 241 243 239 235 233 231 233 236 236
344 344 343 342 341 340 340 340 340 341 341 341 339 337 334 332 330 327 324 321 315 307 300 294 287 282 277 274 271 267 263 259 256 253 250 249 248 247 247 247 246 245 245 245 245 244 243 241 239 237 237 235 234 233 233 233 233 233 233 232 232 231 229 230 233 232 231 229 230 233 233 229 229 230 230 232 234 235 236 240 243 240 236 234 231 231 235 236
344 344 343 343 343 343 342 342 342 344 344 343 341 339 336 334 333 329 326 323 317 309 302 296 290 285 280 276 273 271 267 263 259 256 253 251 249 247 247 246 246 245 245 244 243 244 243 242 240 238 237 236 235 234 233 233 233 233 233 232 232 230 229 230 232 233 231 230 230 232 232 228 228 229 229 231 234 235 235 238 241 241 237 235 233 232 234 236
344 344 343 343 344 344 343 343 344 345 345 344 343 340 338 336 335 331 328 326 320 313 305 299 293 288 283 278 276 274 270 267 263 259 255 253 251 249 248 247 246 245 245 244 242 242 242 241 241 240 239 237 236 235 233 233 233 233 233 233 233 232 230 230 231 232 232 232 231 231 231 227 226 228 228 230 232 234 235 237 239 241 238 235 233 232 233 235
343 344 343 344 344 344 344 344 345 346 346 345 344 342 340 339 337 333 331 329 323 315 308 301 295 288 284 281 279 277 273 270 266 263 258 255 253 251 250 248 247 245 245 245 243 243 242 241 240 240 240 239 238 237 235 234 233 233 233 233 232 232 231 230 229 230 231 231 232 232 230 226 226 227 228 229 230 231 234 236 238 239 238 235 232 232 233 235
343 343 343 344 344 344 344 344 346 347 347 346 344 343 342 340 339 336 333 332 327 320 313 306 299 293 288 283 279 277 276 273 270 267 263 259 256 253 251 249 247 245 244 245 244 243 242 241 240 239 239 239 239 238 237 235 233 233 232 231 230 229 229 229 228 229 230 230 231 230 228 225 226 227 228 229 230 230 232 234 237 238 237 235 233 233 234 234
343 343 343 344 343 343 344 345 346 347 347 346 345 344 343 343 342 339 335 334 330 323 317 311 304 298 294 289 282 277 276 275 273 271 269 265 260 255 252 250 247 244 243 243 243 242 241 240 239 238 238 238 238 238 237 234 232 231 231 230 229 228 228 227 227 228 230 231 230 229 227 224 225 227 227 229 230 230 231 232 236 238 238 237 234 234 234 234
342 343 344 344 343 343 344 345 346 347 348 347 346 345 344 344 344 341 338 335 332 326 321 316 310 303 297 292 287 281 276 274 272 272 272 271 266 260 253 250 248 244 242 242 241 240 239 238 237 237 237 237 237 237 236 234 232 231 230 230 229 228 227 227 227 227 229 230 229 227 226 225 226 227 227 229 230 230 230 231 234 237 239 239 236 234 234 233
342 343 344 344 344 343 344 345 346 347 348 347 347 346 345 345 345 343 341 337 334 331 326 321 316 309 302 295 290 284 277 274 272 271 272 271 269 265 257 249 246 243 241 240 239 238 238 237 236 235 236 236 235 235 235 234 233 232 230 230 229 228 227 226 227 227 228 229 228 225 225 226 227 227 227 229 230 230 230 230 232 235 238 239 237 234 233 232
342 343 344 344 345 345 345 346 346 347 348 348 348 347 346 347 346 345 342 340 337 334 329 324 320 317 312 304 297 290 280 274 273 272 272 270 268 267 262 253 246 242 241 240 238 238 237 236 235 234 233 234 234 234 234 233 233 232 231 230 229 228 227 226 226 227 228 229 228 225 223 225 228 227 225 227 229 229 230 230 231 233 235 238 239 236 233 231
342 343 344 345 345 345 346 346 347 347 348 349 348 348 347 347 347 345 344 342 339 336 332 329 326 324 321 311 304 299 290 282 276 273 272 269 266 265 263 257 248 241 240 240 238 237 235 232 232 232 231 231 231 231 231 231 231 232 232 231 229 228 227 227 226 226 227 228 227 225 224 224 227 228 224 226 230 230 230 230 230 232 233 235 238 237 235 232
342 343 344 345 345 346 346 346 347 348 349 349 349 349 348 348 347 346 345 343 340 340 337 334 330 327 324 314 306 302 296 290 284 278 273 269 266 262 260 257 250 242 238 238 237 236 233 229 229 229 230 230 230 229 229 229 229 229 230 230 229 228 227 226 226 226 227 227 226 225 225 224 226 228 226 226 229 230 230 229 230 232 233 234 236 237 237 235
342 343 344 345 345 346 347 347 347 348 349 349 349 349 348 348 348 346 346 345 343 343 341 336 332 329 326 318 311 306 299 294 289 283 276 270 267 261 256 254 250 244 239 237 236 235 232 229 227 227 227 228 228 228 227 227 227 227 227 229 229 228 226 225 225 226 226 227 226 226 227 227 225 226 226 225 227 228 229 229 230 232 233 234 235 236 237 236
342 343 344 345 345 346 347 347 348 348 349 350 350 349 349 348 348 347 347 346 345 344 342 338 335 332 330 323 315 311 306 299 293 287 279 273 269 262 255 251 247 243 240 237 236 234 231 229 227 225 225 225 226 226 225 225 225 225 225 226 227 227 226 225 225 226 227 227 226 225 226 227 226 224 224 226 226 227 229 229 231 233 233 234 236 236 237 237
342 343 344 345 345 346 346 347 348 349 350 350 350 350 349 348 348 348 347 347 347 346 344 341 339 336 333 329 322 317 312 305 299 293 285 277 272 266 259 252 246 242 239 237 235 232 230 228 227 225 224 224 225 225 225 225 224 223 223 224 225 225 225 225 224 224 226 226 225 225 225 225 225 223 222 224 226 227 228 229 233 236 235 234 236 237 237 236
342 343 344 345 345 345 346 347 348 349 350 350 350 349 349 348 349 348 347 349 349 347 346 344 340 337 335 333 329 323 318 312 304 299 292 282 274 268 262 255 248 243 240 236 233 230 229 228 227 225 224 224 224 224 224 225 224 222 222 223 224 223 223 224 224 223 224 225 224 224 225 225 225 224 222 222 224 228 229 227 232 237 236 234 234 236 237 236
342 343 344 345 345 345 346 347 348 349 350 350 349 349 349 349 349 348 348 350 350 349 348 345 342 338 336 336 334 329 325 320 312 304 298 289 278 271 264 258 250 244 240 236 233 231 229 228 227 225 224 224 224 224 223 224 222 220 220 222 222 222 221 222 223 223 224 224 223 223 225 226 225 224 223 221 221 228 230 227 229 234 236 235 234 234 236 235
342 342 344 344 345 345 345 347 348 349 350 350 350 349 349 349 348 348 349 350 350 350 349 347 345 341 339 340 340 337 330 325 320 313 306 299 288 277 265 258 251 245 240 236 234 233 230 229 227 225 223 222 222 223 223 223 222 219 218 219 220 220 219 220 222 223 223 223 222 222 224 225 225 224 224 221 218 225 229 228 229 231 234 236 234 234 235 234
341 342 343 344 344 344 345 346 348 349 350 350 350 349 348 348 348 349 350 350 350 351 350 348 348 345 344 345 344 342 336 330 325 318 312 306 296 285 271 259 251 245 240 236 235 234 232 230 227 225 222 219 219 220 221 222 222 220 218 218 219 218 217 219 221 222 223 222 221 223 224 225 224 222 223 221 217 222 227 229 231 231 231 234 234 235 234 232
340 341 343 343 344 344 345 346 348 349 350 350 350 349 348 348 348 348 350 350 350 351 350 350 351 351 350 349 348 345 341 335 330 324 318 311 303 293 279 264 251 246 242 238 235 234 231 229 226 224 222 220 219 219 220 219 219 218 218 218 219 217 216 218 219 221 222 222 221 223 224 224 224 221 219 220 218 221 225 229 232 231 230 231 233 234 233 229
339 340 342 343 343 344 345 346 347 349 349 349 349 349 348 347 347 348 351 351 350 351 352 353 355 356 355 354 352 349 346 342 337 333 328 321 310 299 286 270 256 248 243 240 237 233 230 226 223 222 221 219 218 218 219 218 216 215 215 217 218 217 216 216 218 219 220 220 221 223 224 224 223 219 216 220 221 221 223 227 230 229 227 228 230 234 233 229
338 340 342 343 343 344 345 346 347 348 348 349 349 349 348 347 348 349 351 351 351 352 353 355 356 358 357 356 355 353 350 347 344 341 337 328 315 303 290 276 261 249 242 238 236 233 229 224 221 218 218 217 215 215 216 215 214 212 212 214 215 215 215 216 217 218 218 219 220 223 224 223 222 217 213 218 221 220 220 224 229 228 227 227 229 233 234 230
338 340 342 342 343 344 345 346 347 348 348 348 348 348 348 348 348 349 350 351 351 353 355 356 357 358 357 356 356 357 355 351 346 344 342 334 321 309 296 281 266 251 241 236 233 231 228 224 220 218 217 216 215 216 217 215 213 212 213 213 212 211 212 214 216 216 217 218 218 221 223 223 221 216 213 216 220 220 219 222 228 230 228 229 230 233 234 231
339 341 341 342 343 344 345 346 347 347 347 347 347 348 348 348 348 349 350 351 352 354 356 356 357 357 356 356 356 358 359 355 350 349 349 343 333 324 310 295 276 257 242 234 231 229 228 224 219 216 216 214 214 215 217 215 213 214 214 212 210 209 209 210 212 213 215 216 217 219 221 221 219 216 213 216 219 221 220 222 227 230 230 231 232 232 233 230
340 341 341 342 343 344 345 345 346 347 347 346 347 348 348 348 347 348 350 351 353 355 356 356 357 356 356 356 356 359 0 358 354 353 354 350 343 336 323 309 293 268 246 232 228 227 226 222 215 213 214 213 214 214 214 213 213 213 211 208 208 207 205 206 207 209 213 214 215 217 220 219 217 215 214 215 218 221 221 221 226 230 230 230 232 232 231 229
341 341 341 342 343 344 344 344 345 346 346 346 347 348 347 347 347 347 349 352 354 355 355 356 356 355 356 356 358 0 1 0 358 357 358 358 352 345 334 320 303 277 251 233 226 223 222 218 213 212 214 215 215 214 213 212 211 209 208 207 206 204 203 203 204 207 212 213 212 215 219 218 215 213 214 214 216 219 220 220 223 228 230 230 232 232 230 226
340 341 341 342 343 343 343 344 345 346 346 347 347 347 347 346 346 346 348 352 355 356 356 356 355 355 356 357 359 1 3 4 3 2 2 3 359 353 345 327 304 275 247 229 221 219 218 215 211 210 213 214 212 211 212 212 210 209 209 208 206 203 203 203 202 204 210 212 210 213 216 215 212 213 213 213 215 218 219 218 219 225 230 230 231 232 230 226
340 340 342 343 343 343 343 344 345 346 346 346 347 346 346 346 346 346 348 352 355 356 355 356 355 355 356 358 359 1 4 7 7 7 6 5 2 359 350 330 306 277 243 223 215 214 211 208 207 205 205 206 205 205 207 207 208 208 208 208 206 203 202 203 202 203 207 209 209 212 213 209 208 211 212 212 215 218 219 218 216 220 227 230 230 229 228 226
340 340 342 343 343 343 343 344 344 345 345 345 346 345 345 346 346 347 349 353 355 355 355 356 356 356 357 359 1 2 4 6 7 8 8 6 5 5 358 343 326 291 234 208 201 204 202 199 200 200 199 199 200 201 202 202 202 202 201 202 204 204 203 203 203 204 206 206 208 210 208 204 204 208 209 212 214 216 218 218 215 216 222 227 229 226 224 224
340 341 341 342 342 343 343 343 343 343 344 344 345 345 345 347 347 348 350 353 354 354 355 356 356 357 357 358 1 3 5 6 6 7 9 8 7 12 17 13 7 22 150 178 179 184 187 188 192 196 199 197 195 196 198 198 197 196 196 198 200 201 200 200 204 206 206 206 207 207 204 201 202 204 207 211 212 214 217 216 214 215 219 224 228 225 222 223
340 341 341 341 342 342 342 342 342 343 343 344 345 345 345 347 348 348 350 353 354 353 354 355 356 357 357 358 0 3 6 9 8 7 9 11 9 15 30 34 33 44 72 126 154 163 172 179 183 188 193 195 193 192 194 196 194 192 194 195 196 197 195 195 200 205 207 206 205 203 201 200 201 202 206 210 211 212 215 216 214 215 219 223 226 225 221 222
340 340 340 341 341 341 340 341 342 342 342 343 344 344 346 347 347 349 351 352 352 353 353 355 356 357 357 358 0 2 7 10 11 9 10 12 14 20 34 45 49 54 62 91 129 145 157 166 171 173 175 177 180 181 182 189 192 190 192 192 192 194 195 195 197 202 206 206 201 199 199 199 199 201 206 209 210 211 214 215 214 216 218 221 223 223 221 221
339 339 339 340 340 339 339 340 341 341 341 342 343 344 346 347 347 348 350 351 351 352 353 354 356 357 357 358 360 2 7 11 12 12 10 12 20 29 40 51 55 59 64 83 113 130 144 154 160 163 164 167 172 172 170 175 181 185 189 190 189 191 193 195 196 198 203 205 199 196 198 198 198 201 205 208 209 211 214 214 213 216 218 220 221 221 220 220
337 337 338 339 339 339 339 340 340 341 340 341 342 344 346 347 347 348 349 349 350 352 352 353 356 358 357 358 360 3 8 12 13 12 11 14 24 33 45 54 56 60 69 83 105 121 134 147 153 156 158 163 169 171 167 167 171 176 182 185 186 189 192 196 196 194 197 200 197 195 197 197 198 201 205 207 208 210 212 212 213 215 217 219 220 219 218 218
336 336 337 338 339 339 338 339 340 340 339 340 343 345 345 345 346 347 347 348 350 352 353 354 356 358 358 359 2 4 8 12 13 12 13 19 27 34 46 54 57 63 72 84 103 117 126 137 145 147 149 155 161 166 167 166 168 171 176 179 183 185 187 192 195 194 194 195 194 193 195 197 199 203 205 207 208 210 212 212 213 216 217 218 218 217 217 215
334 335 336 337 338 338 338 339 339 339 339 340 342 343 343 344 345 347 348 349 351 352 353 354 356 357 357 359 2 5 7 10 13 13 15 22 28 35 46 54 59 67 75 85 103 118 123 129 133 135 143 152 157 159 160 164 170 171 172 174 177 179 181 186 193 195 193 192 191 191 193 197 201 204 207 209 209 210 212 213 214 216 218 219 217 215 216 214
333 334 335 336 337 338 338 338 338 338 338 339 340 341 343 344 345 347 350 350 351 352 352 353 355 357 359 360 1 3 5 7 12 15 18 23 29 37 49 57 62 68 75 84 100 116 123 128 129 131 139 148 154 157 158 162 170 173 172 172 171 173 178 184 191 194 193 190 188 188 191 197 203 206 208 210 210 211 212 213 214 215 218 219 217 215 215 211
332 333 334 335 336 337 338 337 337 337 337 338 340 341 343 344 345 346 349 350 350 351 351 352 354 357 1 1 360 1 3 6 12 17 19 23 32 43 51 56 63 70 76 84 97 110 121 127 130 135 141 145 150 157 160 164 170 175 174 169 166 169 173 178 186 192 192 188 186 187 190 196 202 206 208 209 209 210 212 214 215 217 219 220 218 217 216 212
331 332 333 334 335 336 337 336 336 336 336 337 340 341 342 344 345 346 348 349 349 350 351 352 354 357 1 3 0 0 4 7 12 19 23 24 32 48 55 55 60 68 76 88 98 107 118 124 128 132 139 144 150 156 163 166 169 176 174 165 163 169 172 175 184 189 188 186 185 186 189 194 200 205 208 210 209 210 213 213 212 216 221 222 218 216 216 215
Height
10691 10688 10685 10682 10679 10676 10673 10670 10667 10664 10661 10657 10654 10651 10648 10645 10643 10640 10638 10636 10634 10633 10632 10632 10632 10633 10633 10632 10632 10633 10633 10635 10636 10637 10638 10637 10638 10641 10643 10645 10647 10649 10650 10652 10654 10656 10660 10663 10666 10667 10668 10672 10678 10684 10683 10682 10686 10686 10690 10704 10721 10733 10743 10747 10747 10752 10755 10758 10759 10757 10756 10757 10762 10765 10770 10772 10769 10776 10781 10782 10783 10786 10797 10806 10807 10806 10805 10806
10687 10684 10680 10677 10674 10671 10668 10665 10661 10658 10655 10651 10648 10644 10641 10638 10635 10632 10630 10627 10626 10624 10623 10622 10623 10624 10624 10623 10622 10623 10624 10625 10627 10628 10628 10627 10629 10632 10634 10636 10638 10640 10642 10644 10646 10648 10651 10653 10655 10657 10661 10665 10669 10674 10673 10673 10675 10677 10686 10701 10718 10731 10737 10738 10739 10743 10746 10749 10750 10748 10748 10749 10754 10760 10762 10760 10760 10771 10775 10776 10778 10779 10793 10804 10801 10801 10799 10801
10683 10680 10676 10673 10669 10666 10662 10659 10656 10652 10649 10645 10641 10638 10634 10631 10628 10625 10622 10619 10617 10615 10614 10613 10613 10614 10615 10613 10612 10613 10614 10615 10617 10618 10617 10618 10619 10622 10623 10625 10627 10630 10632 10635 10637 10640 10641 10643 10645 10648 10653 10657 10661 10664 10663 10665 10666 10670 10680 10695 10717 10727 10727 10730 10733 10735 10736 10740 10740 10739 10740 10740 10748 10754 10751 10749 10756 10766 10768 10771 10773 10773 10789 10800 10796 10795 10794 10796
10679 10675 10672 10668 10664 10660 10657 10653 10649 10646 10642 10639 10635 10631 10627 10624 10620 10617 10614 10611 10608 10606 10604 10603 10603 10604 10605 10604 10602 10603 10603 10605 10608 10607 10606 10607 10608 10610 10612 10614 10617 10620 10622 10625 10628 10630 10632 10634 10636 10640 10644 10649 10653 10652 10654 10658 10660 10665 10671 10691 10714 10716 10715 10724 10725 10723 10726 10729 10730 10731 10732 10734 10743 10747 10741 10741 10751 10761 10764 10767 10769 10769 10781 10794 10791 10788 10790 10793
10674 10670 10666 10662 10658 10654 10650 10647 10642 10638 10635 10631 10627 10624 10620 10616 10612 10609 10606 10602 10600 10597 10595 10594 10593 10593 10594 10593 10592 10592 10593 10594 10597 10596 10594 10595 10595 10597 10599 10602 10606 10609 10612 10616 10618 10621 10623 10625 10627 10631 10635 10641 10643 10643 10648 10653 10653 10655 10662 10684 10702 10702 10707 10715 10712 10712 10718 10721 10722 10723 10725 10732 10737 10738 10733 10734 10747 10758 10760 10761 10764 10762 10770 10786 10788 10785 10787 10791
10669 10665 10661 10657 10652 10648 10644 10640 10635 10631 10627 10623 10619 10616 10612 10609 10605 10601 10597 10594 10591 10588 10585 10584 10582 10583 10583 10582 10582 10581 10582 10583 10585 10584 10580 10581 10582 10585 10588 10592 10595 10598 10602 10605 10608 10611 10614 10616 10618 10623 10627 10631 10633 10636 10643 10644 10641 10643 10655 10676 10689 10693 10701 10705 10703 10706 10712 10711 10713 10717 10721 10726 10728 10728 10725 10729 10744 10754 10756 10755 10757 10756 10763 10781 10787 10783 10786 10789
10664 10659 10655 10651 10646 10641 10637 10632 10628 10624 10619 10615 10611 10607 10604 10600 10597 10593 10589 10585 10582 10579 10576 10573 10572 10573 10572 10571 10571 10571 10570 10570 10573 10572 10567 10567 10572 10575 10578 10581 10583 10587 10590 10593 10597 10600 10603 10607 10610 10614 10617 10622 10625 10630 10634 10631 10629 10635 10650 10668 10680 10686 10693 10696 10695 10698 10704 10703 10706 10713 10714 10714 10718 10722 10721 10729 10742 10748 10752 10750 10750 10755 10760 10775 10782 10781 10784 10787
10658 10654 10649 10644 10640 10635 10629 10625 10621 10616 10612 10607 10603 10599 10595 10591 10587 10583 10579 10575 10572 10569 10566 10563 10562 10562 10561 10559 10559 10560 10559 10558 10560 10561 10557 10557 10562 10563 10565 10568 10571 10575 10578 10581 10585 10589 10593 10597 10600 10603 10606 10612 10616 10619 10622 10619 10620 10630 10648 10664 10672 10677 10683 10687 10686 10689 10695 10694 10696 10703 10704 10705 10712 10719 10719 10726 10735 10739 10745 10742 10744 10752 10754 10765 10775 10777 10781 10783
10653 10648 10643 10638 10634 10629 10623 10618 10614 10609 10604 10599 10595 10590 10586 10582 10578 10573 10569 10565 10562 10558 10555 10553 10551 10551 10549 10547 10547 10547 10547 10548 10550 10552 10551 10548 10548 10548 10550 10555 10559 10563 10567 10570 10573 10577 10582 10586 10589 10590 10594 10601 10605 10608 10611 10609 10615 10630 10647 10656 10660 10666 10672 10673 10674 10677 10683 10683 10684 10691 10697 10702 10710 10714 10713 10719 10727 10733 10739 10734 10738 10747 10748 10758 10768 10772 10775 10779
10648 10642 10637 10632 10628 10623 10618 10613 10607 10602 10597 10592 10587 10582 10578 10573 10568 10563 10559 10555 10551 10547 10544 10541 10539 10539 10537 10535 10535 10534 10535 10542 10544 10542 10538 10534 10533 10533 10536 10543 10548 10552 10555 10558 10561 10565 10570 10574 10576 10578 10584 10591 10596 10601 10602 10603 10613 10627 10638 10644 10648 10655 10658 10660 10662 10665 10671 10673 10675 10685 10696 10702 10706 10703 10703 10716 10726 10731 10733 10726 10732 10742 10744 10753 10764 10768 10770 10775
10642 10637 10632 10627 10622 10617 10612 10607 10602 10596 10590 10585 10579 10573 10569 10563 10558 10553 10548 10545 10540 10537 10534 10530 10527 10526 10525 10523 10521 10522 10527 10533 10533 10528 10524 10523 10524 10521 10524 10533 10537 10540 10543 10545 10548 10552 10556 10561 10562 10567 10575 10582 10586 10590 10592 10596 10608 10618 10626 10632 10638 10644 10648 10652 10653 10654 10662 10667 10672 10684 10694 10697 10693 10688 10700 10720 10726 10726 10726 10717 10721 10735 10741 10750 10759 10764 10767 10771
10637 10632 10627 10621 10616 10611 10605 10601 10595 10590 10584 10578 10571 10565 10560 10554 10549 10543 10539 10535 10531 10527 10523 10519 10516 10513 10513 10509 10506 10511 10516 10517 10517 10517 10514 10513 10513 10510 10513 10521 10525 10526 10529 10532 10535 10538 10542 10546 10550 10557 10565 10571 10575 10579 10582 10588 10599 10608 10614 10622 10630 10636 10642 10646 10646 10648 10657 10664 10673 10679 10681 10683 10679 10685 10708 10724 10723 10719 10717 10707 10708 10726 10739 10748 10755 10760 10765 10767
10633 10627 10622 10616 10611 10605 10600 10594 10589 10583 10577 10571 10564 10557 10551 10545 10540 10534 10529 10525 10521 10517 10512 10508 10505 10502 10500 10494 10493 10498 10500 10500 10502 10504 10502 10501 10501 10499 10500 10507 10510 10511 10514 10518 10521 10525 10529 10533 10538 10546 10553 10560 10565 10568 10573 10581 10590 10599 10605 10612 10620 10626 10634 10639 10639 10644 10651 10661 10669 10665 10664 10673 10679 10694 10714 10720 10715 10709 10707 10699 10697 10719 10736 10744 10752 10756 10760 10763
10629 10623 10617 10612 10606 10600 10594 10588 10583 10577 10571 10564 10556 10549 10543 10537 10531 10525 10519 10516 10511 10506 10501 10497 10493 10490 10487 10481 10480 10483 10483 10485 10487 10487 10487 10487 10489 10486 10485 10491 10495 10497 10501 10505 10509 10513 10518 10522 10527 10534 10541 10547 10552 10555 10562 10570 10578 10587 10593 10600 10609 10617 10629 10634 10633 10637 10645 10656 10662 10650 10652 10672 10684 10698 10711 10710 10705 10700 10700 10691 10687 10710 10730 10738 10747 10751 10753 10756
10625 10619 10613 10607 10601 10595 10589 10583 10577 10571 10564 10557 10549 10542 10535 10529 10522 10515 10510 10506 10501 10495 10490 10486 10481 10478 10474 10469 10467 10467 10468 10470 10471 10471 10472 10471 10473 10472 10471 10476 10480 10484 10491 10495 10498 10501 10505 10510 10516 10522 10527 10532 10536 10542 10550 10557 10567 10575 10580 10590 10602 10612 10625 10628 10624 10629 10639 10649 10649 10638 10644 10670 10685 10696 10704 10700 10693 10691 10692 10684 10680 10702 10723 10732 10741 10746 10746 10748
10621 10615 10609 10603 10596 10590 10584 10577 10571 10564 10558 10551 10543 10535 10527 10521 10514 10506 10501 10497 10491 10485 10479 10475 10470 10467 10464 10458 10455 10454 10454 10456 10456 10456 10456 10455 10456 10457 10458 10462 10467 10472 10479 10484 10485 10486 10489 10496 10503 10510 10514 10518 10523 10532 10540 10547 10556 10565 10571 10584 10596 10606 10617 10619 10616 10623 10633 10636 10632 10627 10640 10667 10683 10690 10693 10686 10682 10683 10683 10679 10678 10693 10714 10726 10734 10739 10739 10740
10616 10610 10604 10598 10592 10585 10579 10572 10565 10558 10551 10545 10538 10529 10520 10513 10506 10497 10491 10488 10481 10475 10469 10465 10459 10455 10452 10447 10444 10443 10440 10441 10441 10439 10439 10439 10440 10443 10444 10448 10455 10460 10463 10466 10469 10471 10476 10485 10492 10498 10502 10505 10512 10521 10529 10536 10548 10559 10568 10581 10591 10601 10609 10610 10610 10617 10621 10621 10620 10623 10639 10664 10677 10678 10676 10672 10673 10675 10675 10676 10677 10685 10704 10718 10725 10729 10732 10736
10611 10606 10600 10593 10587 10580 10574 10566 10559 10552 10545 10538 10531 10523 10514 10505 10498 10489 10482 10478 10471 10466 10462 10457 10450 10444 10441 10438 10434 10431 10427 10427 10427 10422 10423 10426 10428 10430 10432 10434 10441 10448 10448 10447 10454 10460 10465 10473 10480 10485 10489 10494 10502 10510 10520 10533 10547 10555 10563 10573 10583 10591 10596 10597 10601 10606 10607 10609 10613 10620 10637 10660 10667 10663 10662 10661 10664 10667 10669 10673 10674 10679 10693 10707 10716 10721 10727 10733
10607 10602 10596 10589 10582 10576 10569 10561 10554 10546 10538 10530 10523 10517 10509 10499 10491 10481 10474 10470 10462 10454 10452 10449 10441 10432 10429 10429 10426 10420 10415 10414 10413 10408 10408 10413 10416 10417 10419 10421 10427 10433 10432 10432 10440 10446 10451 10458 10464 10470 10478 10487 10496 10503 10515 10529 10538 10543 10550 10558 10567 10573 10576 10584 10592 10596 10596 10599 10605 10615 10634 10653 10654 10650 10652 10652 10654 10659 10664 10669 10669 10671 10681 10695 10708 10715 10722 10729
10603 10597 10591 10584 10577 10571 10564 10556 10548 10541 10533 10524 10515 10508 10500 10492 10484 10473 10463 10460 10455 10446 10440 10438 10434 10424 10417 10416 10416 10412 10406 10402 10400 10396 10395 10400 10404 10405 10406 10409 10413 10418 10420 10421 10426 10430 10433 10439 10448 10459 10471 10479 10486 10492 10502 10513 10520 10525 10532 10539 10549 10556 10563 10574 10583 10585 10587 10589 10598 10613 10631 10643 10640 10637 10640 10641 10645 10652 10660 10665 10664 10666 10673 10686 10702 10712 10718 10724
10599 10593 10587 10580 10573 10566 10559 10551 10543 10535 10527 10519 10510 10501 10492 10484 10477 10468 10456 10449 10446 10440 10432 10427 10425 10419 10411 10405 10403 10403 10399 10393 10390 10386 10385 10387 10389 10391 10395 10398 10401 10406 10409 10408 10409 10413 10416 10423 10437 10451 10460 10466 10472 10477 10486 10496 10503 10509 10516 10524 10535 10544 10554 10565 10570 10574 10578 10581 10593 10611 10623 10629 10626 10626 10631 10633 10638 10645 10654 10660 10662 10665 10669 10677 10693 10706 10713 10718
10595 10588 10582 10576 10568 10560 10553 10546 10537 10529 10521 10512 10504 10494 10485 10476 10468 10461 10452 10441 10434 10430 10423 10417 10413 10409 10404 10396 10393 10392 10389 10384 10380 10377 10378 10378 10377 10377 10382 10387 10390 10393 10394 10392 10395 10399 10404 10415 10431 10442 10447 10450 10456 10463 10471 10482 10490 10496 10504 10512 10522 10534 10545 10554 10559 10567 10571 10573 10587 10605 10613 10616 10614 10618 10625 10626 10630 10638 10648 10656 10660 10663 10663 10667 10683 10700 10708 10711
10591 10584 10578 10571 10564 10555 10547 10540 10532 10523 10515 10505 10496 10487 10478 10469 10460 10452 10446 10437 10428 10420 10414 10409 10403 10398 10393 10386 10383 10381 10378 10376 10372 10370 10370 10369 10368 10367 10370 10376 10379 10381 10381 10381 10385 10390 10397 10412 10423 10427 10429 10432 10440 10449 10457 10468 10477 10485 10493 10501 10513 10527 10535 10544 10553 10562 10565 10569 10584 10596 10601 10603 10601 10606 10615 10616 10622 10635 10645 10652 10657 10658 10659 10663 10675 10691 10700 10704
10587 10581 10574 10567 10560 10552 10542 10534 10527 10518 10509 10500 10490 10482 10472 10463 10455 10447 10439 10431 10424 10416 10406 10400 10394 10389 10385 10378 10374 10372 10368 10366 10365 10363 10362 10361 10360 10361 10361 10363 10367 10370 10370 10372 10376 10380 10390 10403 10407 10409 10413 10418 10425 10433 10441 10452 10463 10473 10482 10491 10504 10516 10525 10537 10549 10555 10557 10561 10573 10583 10586 10588 10589 10595 10609 10617 10622 10633 10641 10646 10650 10650 10655 10661 10669 10681 10690 10698
10584 10577 10569 10563 10555 10548 10539 10529 10521 10513 10503 10494 10485 10476 10467 10459 10450 10442 10435 10427 10419 10411 10401 10393 10387 10382 10379 10372 10367 10365 10361 10357 10356 10356 10355 10352 10353 10354 10354 10354 10357 10360 10360 10362 10366 10371 10381 10391 10393 10396 10401 10406 10413 10420 10428 10437 10448 10460 10469 10480 10492 10505 10516 10529 10538 10542 10544 10549 10562 10572 10573 10578 10586 10594 10608 10618 10620 10626 10632 10637 10641 10643 10651 10660 10667 10674 10681 10691
10581 10574 10566 10558 10551 10544 10536 10527 10518 10509 10500 10491 10481 10472 10463 10454 10445 10436 10430 10421 10412 10405 10397 10390 10384 10377 10373 10367 10361 10358 10354 10350 10349 10348 10347 10345 10345 10346 10346 10346 10348 10350 10352 10354 10357 10364 10373 10379 10381 10384 10389 10394 10399 10407 10415 10423 10433 10445 10457 10469 10480 10494 10506 10518 10527 10530 10533 10543 10556 10565 10566 10574 10584 10590 10601 10609 10611 10617 10623 10629 10635 10639 10648 10660 10666 10670 10674 10686
10578 10571 10562 10555 10547 10538 10531 10523 10514 10505 10496 10486 10476 10467 10457 10448 10440 10431 10423 10415 10406 10400 10393 10386 10379 10372 10367 10363 10357 10352 10348 10344 10342 10342 10340 10338 10338 10339 10339 10340 10341 10342 10344 10347 10352 10359 10364 10365 10368 10373 10376 10380 10385 10393 10403 10410 10419 10432 10447 10458 10468 10483 10497 10510 10519 10521 10527 10538 10545 10551 10556 10563 10570 10580 10594 10600 10605 10612 10617 10625 10631 10636 10650 10661 10663 10664 10670 10683
10574 10568 10560 10551 10543 10535 10527 10518 10509 10500 10490 10480 10470 10460 10452 10444 10435 10425 10417 10410 10401 10393 10386 10378 10372 10366 10361 10356 10352 10347 10344 10340 10336 10335 10335 10333 10332 10331 10332 10333 10335 10336 10337 10341 10346 10350 10351 10353 10358 10363 10367 10371 10378 10388 10397 10402 10410 10425 10438 10447 10457 10472 10486 10500 10507 10510 10518 10523 10528 10539 10545 10549 10559 10575 10588 10593 10599 10606 10613 10626 10634 10638 10651 10658 10657 10661 10668 10678
10571 10564 10558 10549 10540 10532 10523 10515 10505 10495 10484 10475 10465 10456 10448 10440 10431 10422 10413 10406 10397 10389 10382 10375 10368 10362 10356 10351 10347 10342 10339 10336 10332 10330 10330 10328 10327 10326 10326 10328 10329 10330 10331 10335 10338 10339 10342 10346 10350 10355 10359 10366 10374 10383 10390 10394 10404 10419 10429 10436 10446 10459 10475 10487 10492 10498 10503 10503 10515 10532 10537 10542 10555 10570 10579 10587 10597 10604 10616 10634 10638 10635 10644 10649 10651 10658 10665 10672
10568 10561 10554 10547 10539 10530 10521 10512 10503 10494 10484 10474 10464 10454 10445 10436 10427 10420 10410 10401 10395 10387 10379 10372 10365 10359 10353 10347 10343 10338 10335 10332 10328 10326 10325 10324 10323 10322 10322 10322 10324 10325 10326 10329 10330 10331 10335 10339 10343 10349 10356 10364 10371 10377 10381 10384 10395 10409 10418 10426 10435 10447 10464 10474 10477 10485 10486 10489 10508 10526 10529 10536 10550 10562 10571 10585 10601 10610 10620 10632 10630 10627 10634 10640 10647 10656 10660 10667
10565 10557 10550 10543 10536 10528 10520 10512 10503 10494 10485 10474 10462 10451 10441 10432 10424 10416 10407 10398 10392 10384 10375 10368 10361 10354 10349 10344 10339 10334 10330 10328 10325 10322 10320 10319 10319 10319 10318 10318 10319 10320 10321 10323 10324 10326 10330 10334 10340 10346 10352 10358 10363 10368 10373 10379 10389 10399 10407 10417 10425 10437 10452 10458 10462 10469 10469 10480 10505 10519 10523 10530 10541 10557 10570 10589 10608 10612 10614 10621 10620 10623 10629 10634 10644 10651 10654 10662
10562 10554 10547 10540 10533 10524 10516 10508 10500 10490 10481 10470 10460 10449 10439 10430 10422 10414 10405 10396 10389 10382 10374 10367 10360 10352 10346 10341 10336 10332 10328 10324 10322 10319 10317 10316 10315 10315 10315 10315 10315 10315 10317 10319 10319 10322 10327 10332 10337 10341 10345 10349 10353 10359 10366 10374 10383 10393 10403 10410 10415 10426 10439 10444 10451 10459 10464 10482 10505 10514 10518 10523 10533 10555 10574 10593 10607 10605 10607 10614 10615 10620 10626 10631 10639 10643 10647 10658
10558 10551 10544 10537 10529 10521 10512 10503 10494 10485 10477 10467 10457 10447 10436 10427 10419 10411 10404 10394 10386 10380 10373 10365 10357 10350 10343 10338 10334 10330 10326 10322 10319 10317 10315 10313 10312 10312 10312 10312 10311 10311 10313 10315 10316 10320 10324 10328 10332 10336 10340 10344 10350 10355 10360 10367 10377 10388 10399 10404 10409 10419 10428 10435 10445 10454 10463 10484 10503 10507 10510 10515 10528 10553 10577 10591 10599 10601 10607 10610 10608 10614 10622 10627 10633 10634 10640 10652
10555 10548 10541 10533 10526 10518 10510 10500 10490 10481 10473 10464 10456 10446 10436 10427 10418 10409 10400 10392 10383 10376 10369 10360 10353 10347 10341 10336 10332 10327 10324 10320 10317 10314 10312 10311 10310 10309 10309 10309 10308 10309 10310 10311 10313 10316 10319 10323 10327 10331 10335 10339 10345 10350 10356 10363 10370 10380 10390 10395 10402 10413 10423 10431 10439 10448 10462 10483 10498 10499 10500 10510 10527 10555 10579 10589 10594 10600 10603 10599 10598 10607 10616 10622 10625 10626 10636 10650
10551 10545 10539 10532 10523 10515 10506 10497 10488 10479 10470 10462 10454 10446 10436 10427 10417 10407 10398 10391 10383 10374 10365 10358 10351 10345 10339 10335 10330 10326 10322 10319 10315 10313 10311 10309 10308 10307 10306 10306 10306 10307 10307 10309 10311 10313 10315 10318 10321 10325 10329 10333 10339 10345 10349 10355 10363 10372 10378 10383 10394 10409 10420 10429 10435 10448 10464 10479 10489 10491 10496 10511 10529 10555 10576 10580 10581 10587 10590 10589 10591 10601 10611 10617 10621 10625 10636 10648
10550 10542 10534 10528 10520 10513 10504 10495 10486 10477 10468 10460 10452 10444 10434 10423 10413 10405 10396 10390 10383 10374 10364 10356 10349 10344 10339 10334 10330 10326 10322 10318 10315 10312 10310 10308 10307 10306 10305 10305 10305 10305 10306 10306 10308 10310 10312 10315 10318 10322 10326 10332 10338 10342 10344 10352 10361 10367 10372 10382 10396 10407 10415 10423 10435 10449 10460 10469 10478 10484 10493 10508 10524 10546 10563 10565 10566 10574 10584 10589 10591 10600 10610 10614 10620 10627 10636 10646
10549 10541 10533 10525 10518 10511 10503 10494 10485 10476 10466 10457 10448 10439 10429 10419 10411 10404 10396 10387 10379 10371 10365 10357 10351 10344 10339 10334 10329 10325 10321 10318 10315 10311 10309 10307 10305 10304 10303 10303 10304 10304 10304 10305 10306 10308 10309 10312 10317 10321 10324 10329 10333 10335 10342 10351 10358 10364 10375 10388 10395 10398 10404 10415 10429 10441 10449 10458 10470 10478 10486 10498 10515 10539 10555 10559 10565 10575 10587 10593 10592 10598 10607 10612 10619 10626 10634 10642
10547 10539 10531 10523 10515 10507 10500 10492 10485 10477 10468 10458 10447 10436 10427 10419 10410 10403 10396 10388 10378 10370 10364 10358 10352 10346 10341 10335 10330 10325 10321 10318 10314 10311 10308 10306 10304 10303 10302 10302 10302 10302 10303 10303 10304 10306 10308 10311 10315 10317 10319 10322 10325 10331 10339 10347 10355 10364 10373 10377 10378 10384 10396 10408 10420 10431 10439 10448 10462 10473 10480 10491 10514 10538 10552 10559 10567 10575 10584 10590 10590 10596 10604 10609 10615 10622 10631 10639
10545 10538 10530 10522 10513 10505 10499 10493 10486 10477 10468 10458 10447 10436 10426 10417 10409 10401 10395 10389 10381 10372 10365 10359 10352 10347 10342 10336 10330 10325 10321 10318 10314 10311 10308 10306 10304 10303 10302 10301 10301 10301 10302 10302 10303 10305 10306 10309 10312 10314 10316 10320 10325 10333 10339 10344 10350 10356 10359 10362 10369 10382 10394 10404 10416 10428 10434 10443 10459 10470 10475 10490 10518 10538 10548 10558 10565 10569 10577 10584 10589 10594 10600 10607 10612 10618 10627 10635
10544 10538 10530 10522 10514 10506 10498 10491 10483 10475 10466 10457 10446 10436 10428 10419 10411 10403 10396 10389 10382 10374 10367 10361 10353 10347 10342 10337 10331 10326 10322 10318 10315 10311 10308 10306 10304 10303 10302 10301 10301 10301 10301 10301 10302 10303 10305 10308 10310 10313 10317 10322 10329 10335 10339 10343 10347 10352 10358 10366 10377 10387 10397 10404 10413 10422 10429 10441 10456 10464 10471 10494 10522 10536 10545 10555 10559 10562 10570 10579 10588 10592 10596 10602 10608 10614 10623 10629
10540 10535 10529 10521 10513 10505 10497 10488 10479 10472 10465 10456 10448 10439 10431 10423 10414 10405 10397 10388 10381 10374 10368 10362 10356 10349 10343 10338 10332 10326 10322 10318 10315 10312 10309 10306 10305 10303 10302 10302 10301 10301 10301 10301 10302 10303 10305 10307 10310 10313 10317 10322 10326 10329 10333 10340 10347 10355 10365 10375 10382 10389 10396 10403 10411 10418 10427 10439 10452 10459 10472 10498 10520 10531 10542 10551 10553 10558 10566 10575 10585 10589 10591 10596 10602 10610 10618 10624
10536 10529 10524 10518 10510 10502 10493 10485 10478 10472 10466 10460 10453 10444 10434 10425 10414 10404 10396 10387 10380 10374 10368 10362 10356 10350 10344 10339 10334 10328 10323 10319 10316 10313 10310 10308 10306 10305 10304 10303 10302 10302 10302 10302 10302 10304 10305 10307 10310 10313 10316 10318 10322 10326 10331 10337 10345 10353 10362 10371 10380 10388 10397 10407 10415 10421 10428 10439 10449 10458 10476 10498 10513 10523 10534 10541 10546 10554 10562 10571 10581 10585 10587 10590 10596 10605 10614 10619
10535 10527 10519 10513 10507 10499 10490 10483 10477 10471 10464 10458 10450 10441 10432 10423 10413 10403 10395 10387 10381 10375 10369 10364 10358 10351 10345 10340 10336 10330 10325 10321 10318 10315 10312 10310 10308 10307 10305 10304 10304 10303 10303 10303 10303 10304 10306 10308 10310 10313 10316 10319 10322 10327 10332 10336 10342 10350 10358 10367 10376 10388 10400 10412 10420 10424 10430 10438 10447 10460 10478 10494 10504 10515 10525 10531 10539 10549 10556 10565 10574 10579 10582 10586 10592 10602 10611 10615
10534 10527 10519 10510 10503 10496 10490 10484 10476 10467 10458 10450 10443 10435 10426 10418 10411 10403 10395 10389 10383 10377 10371 10365 10359 10353 10347 10342 10337 10333 10328 10324 10320 10317 10315 10312 10311 10309 10307 10306 10305 10305 10304 10304 10304 10305 10306 10308 10310 10314 10318 10323 10328 10332 10337 10343 10349 10355 10362 10370 10379 10390 10400 10407 10414 10422 10429 10437 10449 10465 10481 10492 10501 10513 10522 10527 10536 10546 10553 10560 10569 10575 10579 10584 10590 10600 10607 10610
10532 10526 10520 10512 10503 10496 10491 10483 10474 10465 10457 10449 10442 10434 10424 10415 10408 10402 10394 10388 10384 10378 10372 10367 10361 10354 10349 10344 10339 10335 10330 10326 10323 10320 10318 10315 10314 10312 10309 10307 10306 10306 10305 10306 10306 10306 10307 10309 10312 10315 10319 10324 10330 10336 10343 10350 10356 10361 10367 10375 10383 10393 10401 10405 10410 10420 10429 10438 10451 10466 10478 10489 10500 10511 10518 10524 10534 10543 10548 10556 10564 10570 10575 10581 10588 10596 10602 10606
10530 10523 10518 10513 10505 10497 10491 10485 10477 10469 10460 10453 10445 10436 10427 10418 10410 10402 10396 10390 10385 10379 10374 10369 10363 10357 10350 10345 10341 10337 10332 10328 10325 10323 10321 10319 10316 10314 10312 10310 10308 10308 10307 10308 10308 10308 10309 10311 10313 10316 10319 10323 10327 10332 10337 10345 10356 10365 10372 10379 10386 10393 10400 10405 10410 10420 10430 10442 10454 10466 10476 10487 10499 10508 10515 10523 10533 10540 10545 10552 10560 10566 10572 10580 10587 10593 10599 10603
10527 10521 10515 10510 10504 10495 10486 10481 10476 10468 10460 10453 10446 10436 10427 10421 10413 10405 10400 10395 10389 10382 10377 10371 10365 10359 10354 10348 10343 10339 10335 10331 10328 10325 10324 10322 10319 10316 10314 10312 10311 10310 10310 10310 10310 10311 10312 10314 10316 10319 10322 10326 10331 10336 10339 10343 10352 10362 10371 10379 10385 10392 10401 10408 10415 10421 10429 10441 10455 10466 10477 10490 10501 10508 10513 10519 10527 10534 10541 10549 10556 10562 10570 10578 10584 10591 10596 10600
10524 10519 10514 10508 10502 10493 10484 10477 10471 10464 10455 10447 10440 10433 10427 10422 10418 10410 10402 10396 10390 10383 10377 10372 10366 10361 10356 10351 10346 10341 10337 10334 10331 10329 10326 10324 10322 10319 10317 10315 10314 10314 10313 10313 10313 10314 10315 10317 10320 10324 10327 10330 10335 10342 10347 10350 10354 10359 10367 10376 10384 10393 10404 10414 10422 10425 10428 10438 10451 10465 10479 10492 10500 10505 10509 10515 10523 10530 10539 10547 10553 10560 10568 10576 10583 10588 10593 10598
10519 10513 10509 10504 10500 10493 10485 10476 10469 10462 10454 10445 10439 10435 10430 10423 10418 10412 10404 10395 10388 10383 10378 10373 10368 10363 10358 10353 10348 10344 10340 10337 10335 10332 10330 10327 10325 10323 10321 10319 10318 10318 10317 10317 10317 10318 10319 10321 10324 10328 10332 10335 10338 10343 10350 10356 10360 10363 10369 10377 10385 10395 10405 10414 10422 10427 10431 10439 10452 10466 10480 10492 10498 10503 10509 10515 10522 10531 10539 10546 10552 10559 10568 10576 10582 10587 10591 10596
10516 10509 10502 10498 10494 10489 10482 10474 10467 10461 10453 10447 10440 10434 10427 10420 10414 10409 10404 10396 10390 10384 10380 10375 10371 10366 10361 10355 10350 10347 10344 10340 10338 10336 10333 10331 10328 10326 10324 10323 10322 10322 10322 10322 10322 10322 10324 10326 10328 10331 10335 10339 10343 10346 10351 10357 10363 10368 10372 10377 10385 10394 10405 10415 10423 10429 10434 10443 10455 10468 10480 10490 10497 10504 10510 10515 10522 10530 10537 10542 10550 10560 10568 10575 10581 10585 10589 10594
10515 10509 10502 10495 10490 10485 10479 10472 10466 10459 10451 10445 10439 10431 10425 10419 10411 10406 10402 10398 10392 10387 10382 10377 10372 10367 10362 10357 10353 10350 10347 10343 10340 10338 10336 10334 10332 10329 10328 10326 10325 10325 10326 10327 10327 10328 10329 10330 10333 10335 10338 10342 10347 10351 10355 10359 10364 10370 10374 10379 10387 10395 10405 10416 10425 10430 10436 10446 10457 10467 10478 10487 10495 10502 10508 10514 10520 10528 10534 10541 10552 10562 10568 10574 10579 10583 10586 10591
10511 10505 10500 10494 10487 10483 10478 10472 10464 10458 10449 10442 10437 10431 10424 10419 10413 10406 10400 10396 10391 10386 10382 10378 10373 10368 10364 10360 10356 10353 10350 10347 10343 10341 10339 10337 10336 10333 10331 10330 10329 10329 10330 10331 10332 10333 10334 10336 10338 10341 10344 10348 10352 10356 10360 10364 10371 10378 10380 10384 10392 10399 10407 10416 10422 10429 10438 10447 10457 10466 10476 10486 10492 10498 10504 10511 10518 10526 10533 10542 10555 10565 10569 10572 10576 10579 10582 10586